[Iaude] MPEC V40: 2023 VX [a=2.26,e=0.61,i=4.8,H=24.2]
    mpec at marsden.cfa.harvard.edu 
    mpec at marsden.cfa.harvard.edu
       
    Sat Nov  4 23:41:24 EDT 2023
    
    
  
M.P.E.C. 2023-V40                              Issued 2023 November 5, 03:39 UT
     The Minor Planet Electronic Circulars contain information on unusual
         minor planets, routine data on comets and natural satellites,
         and occasional editorial announcements.  They are published
    on behalf of Division F of the International Astronomical Union by the
          Minor Planet Center, Smithsonian Astrophysical Observatory,
                          Cambridge, MA 02138, U.S.A.
			  
             Prepared using the Tamkin Foundation Computer Network
                              MPC at CFA.HARVARD.EDU
            URL https://www.minorplanetcenter.net/    ISSN 1523-6714
                                    2023 VX                                     
Observations:
     K23V00X*1C2023 11 03.12182722 00 49.957+31 02 55.90         20.85GVEV040G96
     K23V00X 1C2023 11 03.12704122 00 46.213+31 03 06.30         20.63GVEV040G96
     K23V00X 1C2023 11 03.13223422 00 42.419+31 03 16.49         21.12GVEV040G96
     K23V00X KC2023 11 03.25033321 59 16.970+31 06 56.40         20.21GVEV040I52
     K23V00X KC2023 11 03.25255221 59 15.420+31 07 00.80         21.09GVEV040I52
     K23V00X  C2023 11 03.30484921 58 38.008+31 08 26.68         20.7 GVEV040H01
     K23V00X  C2023 11 03.31194621 58 32.978+31 08 38.99         20.6 GVEV040H01
     K23V00X KC2023 11 04.06397521 49 30.284+31 34 36.41         20.32GVEV040I52
     K23V00X KC2023 11 04.06490621 49 29.572+31 34 37.92         20.65GVEV040I52
     K23V00X KC2023 11 04.06511621 49 28.71 +31 34 34.5          20.1 GXEV040858
     K23V00X KC2023 11 04.06584421 49 28.765+31 34 40.01         20.69GVEV040I52
     K23V00X KC2023 11 04.07199921 49 23.06 +31 34 48.7          21.3 GXEV040858
     K23V00X KC2023 11 04.07888321 49 17.50 +31 35 02.6          20.6 GXEV040858
     K23V00X KC2023 11 05.06344221 35 41.60 +32 07 46.5          20.6 GXEV040858
     K23V00X KC2023 11 05.06809521 35 37.25 +32 07 55.9          21.0 GXEV040858
     K23V00X KC2023 11 05.07293921 35 32.67 +32 08 05.2          21.1 GXEV040858
Observer details:
858 Tebbutt Observatory, Edgewood.  Observer F. B. Zoltowski.  0.51-m f/8.1
    Schmidt-Cassegrain + CCD.
G96 Mt. Lemmon Survey.  Observer J. B. Fazekas.  Measurers E. C. Beshore, D.
    Fay, J. B. Fazekas, D. C. Fuls, A. R. Gibbs, A. D. Grauer, H. Groeller, J.
    K. Hogan, R. A. Kowalski, S. M. Larson, G. J. Leonard, D. Rankin, R. L.
    Seaman, F. C. Shelly, K. W. Wierzchos.  1.5-m reflector + 10K CCD.
H01 Magdalena Ridge Observatory, Socorro.  Observers W. H. Ryan, E. V. Ryan.
    Measurer W. H. Ryan.  2.4-m f/8.9 Ritchey-Chretien + CCD.
I52 Steward Observatory, Mt. Lemmon Station.  Observer D. Rankin.  Measurers
    E. C. Beshore, D. Fay, J. B. Fazekas, D. C. Fuls, A. R. Gibbs, A. D.
    Grauer, H. Groeller, J. K. Hogan, R. A. Kowalski, S. M. Larson, G. J.
    Leonard, D. Rankin, R. L. Seaman, F. C. Shelly, K. W. Wierzchos.  1.0-m
    prime focus + CCD.
Orbital elements:
2023 VX                                                  Earth MOID = 0.0404 AU
Epoch 2023 Sept. 13.0 TT = JDT 2460200.5                Veres                   
M 334.32149              (2000.0)            P               Q                  
n   0.28914812     Peri.  192.88782     +0.03787014     -0.99604263             
a   2.2649353      Node   254.98473     +0.92405144     +0.06553444             
e   0.6076502      Incl.    4.77523     +0.38038768     -0.06003592             
P   3.41           H   24.27          G   0.15           U   8                  
Residuals in seconds of arc
231103 G96  0.1-  0.0     231103 H01  0.1-  0.0     231104 858  0.3+  0.3+
231103 G96  0.3+  0.1+    231104 I52  0.2-  0.1+    231105 858  0.1+  0.4+
231103 G96  0.2-  0.1+    231104 I52  0.4+  0.3-    231105 858  0.3+  0.6+
231103 I52  0.3-  0.2-    231104 858  0.5-  0.4+    231105 858  0.1-  0.4+
231103 I52  0.3+  0.2+    231104 I52  0.1-  0.2-
231103 H01  0.1+  0.1-    231104 858  0.7-  0.4+
Ephemeris:
2023 VX                  a,e,i = 2.26, 0.61, 5                   q = 0.8886
Date    TT    R. A. (2000) Decl.     Delta      r    Elong.  Phase     V
2023 10 06    23 56 20.3 +22 08 19   0.2656  1.2517   159.1    16.6    22.8
...
2023 10 21    23 20 40.2 +25 38 19   0.1596  1.1283   143.7    31.5    21.9
...
2023 10 29    22 44 00.7 +28 28 09   0.1106  1.0676   129.7    45.7    21.4
...
2023 11 04    21 50 18.4 +31 32 28   0.07743 1.0257   113.9    62.2    21.0
2023 11 05    21 36 37.9 +32 05 46   0.07237 1.0191   110.3    65.8    20.9
2023 11 06    21 20 50.9 +32 37 11   0.06752 1.0126   106.4    69.9    20.9
...
2023 11 12    18 44 29.8 +31 01 15   0.04639 0.9762    71.4   106.0    21.5
...
2023 11 20    15 04 00.8 +06 21 52   0.05928 0.9360    27.3   151.1    26.6
...
2023 12 05    13 28 42.0 -11 37 09   0.1474  0.8925    47.5   125.5    25.2
M. P. C. Staff               (C) Copyright 2023 MPC           M.P.E.C. 2023-V40
    
    
More information about the Iaude
mailing list